Temp
3 2 2 1 1 0 0 0 -1 -1 -2 -2 -2 -2 -3 -3 -3 -4 -5 -5 -5 -6 -6 -6 -6 -6 -7 -7 -7 -6 -6 -6 -6 -6 -4 -4 -3 -3 -3 -2 -1 -1 -1
3 2 2 1 1 0 -0 -0 -1 -1 -2 -3 -3 -3 -3 -3 -4 -4 -5 -5 -6 -6 -7 -7 -7 -7 -7 -8 -8 -7 -7 -7 -7 -6 -6 -4 -4 -5 -3 -3 -2 -2 -2
3 2 2 1 0 -0 -0 -1 -1 -2 -3 -3 -3 -4 -4 -4 -4 -5 -5 -6 -6 -7 -8 -8 -8 -8 -8 -8 -8 -8 -8 -7 -7 -7 -7 -6 -5 -4 -5 -3 -3 -2 -1
3 2 1 1 -0 -1 -1 -1 -2 -3 -3 -3 -4 -4 -4 -5 -5 -6 -6 -6 -7 -8 -9 -9 -9 -9 -8 -8 -8 -8 -8 -8 -7 -7 -8 -8 -7 -6 -5 -5 -3 -2 -2
2 1 1 -0 -1 -1 -1 -2 -3 -3 -3 -4 -4 -5 -5 -6 -6 -6 -7 -7 -8 -8 -9 -9 -9 -9 -9 -9 -9 -9 -9 -8 -8 -8 -8 -8 -8 -7 -7 -5 -5 -3 -2
2 1 0 -1 -1 -1 -2 -3 -4 -4 -4 -5 -5 -6 -6 -6 -7 -7 -7 -8 -8 -8 -9 -9 -9 -9 -9 -9 -9 -9 -9 -9 -9 -8 -8 -8 -8 -7 -7 -6 -5 -4 -4
1 1 -0 -1 -1 -2 -3 -4 -4 -5 -5 -6 -6 -6 -7 -7 -7 -8 -8 -8 -8 -8 -9 -9 -9 -9 -10 -10 -10 -10 -9 -9 -9 -9 -9 -8 -7 -7 -7 -6 -6 -5 -4
1 0 -1 -1 -2 -3 -4 -4 -5 -6 -6 -6 -6 -7 -7 -8 -8 -8 -9 -9 -9 -9 -9 -9 -9 -9 -10 -10 -10 -10 -10 -10 -10 -9 -9 -8 -8 -7 -7 -7 -6 -5 -4
0 -1 -1 -2 -3 -4 -5 -5 -6 -6 -6 -6 -7 -7 -8 -8 -8 -9 -9 -9 -9 -9 -9 -9 -9 -10 -10 -10 -10 -10 -10 -10 -10 -10 -9 -9 -8 -8 -7 -7 -7 -6 -5
-1 -1 -2 -3 -4 -5 -5 -6 -7 -6 -6 -7 -7 -8 -8 -9 -9 -9 -9 -9 -10 -10 -10 -10 -10 -10 -10 -11 -11 -11 -10 -10 -10 -10 -10 -9 -9 -8 -8 -7 -7 -7 -6
-2 -2 -3 -4 -5 -6 -6 -7 -6 -7 -7 -8 -8 -8 -8 -9 -9 -9 -9 -9 -10 -10 -10 -10 -10 -10 -10 -11 -11 -11 -11 -10 -11 -11 -10 -10 -9 -8 -8 -8 -8 -7 -6
-2 -3 -4 -4 -5 -6 -6 -6 -7 -7 -8 -8 -8 -8 -9 -9 -9 -9 -10 -10 -10 -11 -11 -10 -11 -11 -11 -11 -11 -11 -11 -11 -11 -11 -10 -10 -10 -9 -9 -8 -8 -7 -7
-3 -3 -4 -5 -6 -6 -6 -7 -7 -7 -8 -8 -8 -9 -9 -9 -9 -10 -10 -11 -11 -11 -12 -12 -11 -11 -12 -12 -12 -11 -11 -11 -11 -11 -11 -10 -10 -10 -10 -9 -8 -8 -8
-3 -4 -5 -5 -6 -6 -7 -7 -7 -8 -8 -8 -9 -9 -9 -9 -10 -11 -11 -12 -12 -13 -13 -13 -13 -13 -13 -13 -12 -12 -12 -11 -11 -11 -11 -10 -10 -10 -10 -10 -9 -8 -8
-3 -4 -5 -6 -6 -6 -7 -7 -8 -8 -8 -9 -9 -9 -10 -10 -11 -12 -13 -13 -13 -14 -14 -14 -14 -14 -14 -13 -13 -13 -12 -12 -12 -11 -11 -10 -10 -10 -10 -10 -9 -9 -8
-4 -5 -5 -6 -6 -6 -7 -7 -8 -8 -9 -9 -10 -10 -11 -12 -12 -13 -13 -14 -14 -14 -15 -15 -15 -15 -15 -14 -14 -14 -13 -13 -12 -12 -11 -11 -10 -10 -10 -10 -9 -9 -9
-4 -5 -6 -6 -6 -7 -7 -8 -8 -9 -9 -10 -11 -11 -12 -13 -13 -13 -14 -14 -15 -15 -15 -15 -15 -15 -15 -15 -14 -14 -14 -13 -12 -12 -12 -11 -11 -10 -10 -10 -9 -9 -9
-5 -6 -6 -7 -7 -8 -8 -8 -9 -9 -10 -11 -12 -13 -13 -13 -14 -14 -15 -15 -15 -15 -15 -15 -15 -15 -15 -15 -15 -15 -14 -13 -13 -13 -12 -12 -12 -11 -10 -10 -9 -9 -9
-6 -6 -7 -7 -7 -8 -8 -9 -9 -10 -11 -12 -13 -13 -14 -14 -14 -14 -15 -15 -15 -15 -16 -16 -16 -15 -15 -15 -15 -14 -14 -13 -13 -13 -13 -13 -12 -12 -11 -10 -10 -9 -9
-6 -7 -7 -7 -8 -8 -9 -9 -10 -11 -12 -12 -13 -14 -14 -14 -15 -15 -15 -15 -15 -16 -16 -16 -16 -15 -15 -15 -15 -14 -14 -14 -13 -13 -13 -13 -13 -12 -12 -11 -10 -9 -9
-7 -7 -8 -8 -9 -9 -9 -10 -11 -12 -12 -13 -14 -14 -14 -15 -15 -15 -16 -16 -16 -16 -16 -15 -16 -15 -15 -14 -14 -14 -14 -14 -13 -13 -13 -13 -13 -13 -12 -12 -11 -9 -9
-7 -8 -9 -9 -9 -10 -10 -11 -11 -12 -13 -13 -14 -14 -15 -15 -15 -15 -16 -16 -16 -16 -15 -15 -15 -15 -14 -14 -14 -14 -14 -14 -13 -13 -13 -13 -13 -13 -12 -12 -11 -10 -9
-8 -8 -9 -10 -10 -10 -11 -11 -12 -12 -13 -13 -14 -14 -14 -15 -15 -16 -15 -15 -16 -15 -15 -15 -14 -14 -14 -14 -14 -14 -14 -14 -14 -13 -13 -12 -12 -12 -12 -12 -12 -11 -10
-8 -9 -9 -10 -11 -11 -12 -12 -13 -13 -13 -14 -14 -14 -14 -15 -15 -15 -16 -15 -15 -15 -14 -14 -14 -14 -14 -14 -14 -14 -14 -14 -14 -13 -13 -12 -12 -12 -12 -12 -12 -11 -10
-9 -9 -10 -11 -11 -12 -13 -13 -13 -13 -13 -14 -14 -14 -14 -15 -14 -15 -15 -15 -15 -15 -14 -14 -13 -13 -13 -13 -14 -14 -14 -14 -14 -14 -13 -13 -12 -12 -12 -11 -11 -11 -10
-10 -10 -11 -11 -12 -13 -13 -13 -14 -14 -14 -14 -14 -14 -14 -14 -14 -14 -14 -15 -15 -15 -15 -14 -14 -14 -14 -14 -14 -14 -14 -14 -14 -14 -13 -13 -13 -12 -12 -11 -11 -10 -10
Height
3126 3126 3125 3122 3120 3117 3113 3109 3104 3100 3096 3091 3086 3080 3074 3069 3063 3056 3050 3043 3036 3029 3023 3017 3013 3009 3004 3002 3001 2998 2997 2997 2995 2991 2992 2997 2999 3001 3003 3004 3005 3007 3007
3122 3122 3120 3118 3115 3112 3108 3104 3099 3094 3088 3081 3075 3068 3062 3058 3052 3047 3041 3035 3028 3020 3013 3007 3002 2998 2994 2992 2990 2988 2986 2986 2986 2983 2983 2982 2989 2989 2994 2995 2998 3000 3000
3117 3117 3115 3114 3111 3108 3103 3098 3093 3087 3080 3075 3069 3064 3058 3053 3046 3039 3032 3025 3018 3010 3003 2997 2992 2988 2983 2980 2979 2978 2976 2975 2978 2977 2976 2976 2975 2979 2984 2986 2989 2992 2994
3112 3112 3110 3109 3107 3103 3097 3092 3086 3081 3076 3070 3062 3055 3047 3039 3032 3025 3018 3012 3006 2999 2993 2988 2983 2979 2974 2971 2969 2968 2966 2964 2967 2969 2969 2969 2969 2969 2974 2978 2981 2983 2987
3107 3106 3106 3104 3101 3096 3091 3086 3081 3075 3069 3063 3055 3048 3040 3032 3025 3017 3009 3003 2997 2991 2986 2980 2975 2970 2966 2962 2959 2958 2957 2956 2956 2957 2960 2963 2962 2963 2965 2967 2972 2975 2979
3102 3102 3101 3098 3094 3090 3085 3080 3074 3068 3062 3056 3048 3040 3031 3023 3015 3008 3001 2995 2989 2983 2978 2972 2967 2962 2957 2954 2951 2949 2948 2947 2947 2948 2950 2953 2955 2957 2958 2960 2963 2968 2973
3098 3097 3095 3092 3088 3083 3078 3072 3067 3061 3054 3047 3040 3032 3023 3014 3006 3000 2993 2986 2981 2975 2970 2964 2959 2954 2950 2946 2943 2940 2939 2938 2937 2939 2940 2943 2946 2948 2951 2953 2955 2959 2966
3093 3092 3089 3086 3081 3076 3070 3065 3059 3053 3047 3039 3031 3023 3015 3007 2999 2992 2985 2979 2973 2967 2962 2955 2950 2946 2942 2938 2935 2933 2931 2929 2929 2929 2931 2933 2937 2939 2942 2945 2948 2951 2956
3088 3086 3083 3078 3073 3068 3063 3058 3052 3046 3038 3030 3022 3015 3007 2999 2991 2985 2978 2972 2966 2959 2953 2948 2942 2938 2935 2931 2927 2925 2923 2921 2920 2921 2922 2924 2927 2930 2933 2937 2940 2943 2947
3082 3079 3074 3070 3065 3061 3056 3050 3044 3037 3029 3021 3014 3006 2998 2991 2984 2977 2970 2964 2957 2951 2945 2940 2935 2930 2927 2923 2919 2917 2915 2913 2913 2913 2914 2916 2919 2922 2924 2929 2933 2935 2940
3074 3070 3066 3062 3058 3054 3049 3044 3037 3029 3021 3013 3005 2998 2990 2983 2976 2968 2961 2955 2948 2942 2936 2930 2926 2922 2919 2915 2912 2909 2907 2906 2906 2906 2906 2908 2910 2913 2916 2920 2924 2928 2932
3066 3062 3058 3055 3052 3047 3042 3036 3028 3020 3013 3006 2997 2990 2982 2974 2967 2960 2953 2946 2939 2932 2927 2921 2917 2913 2910 2907 2904 2902 2900 2898 2898 2899 2899 2900 2902 2905 2908 2911 2916 2921 2926
3059 3056 3053 3049 3045 3040 3034 3027 3021 3013 3005 2997 2988 2980 2972 2965 2958 2951 2944 2937 2930 2923 2917 2912 2907 2903 2900 2898 2895 2893 2892 2891 2891 2891 2891 2893 2894 2897 2900 2903 2908 2912 2917
3052 3049 3046 3042 3037 3031 3025 3019 3012 3004 2996 2989 2981 2972 2964 2957 2949 2941 2934 2927 2920 2914 2908 2903 2897 2893 2889 2887 2886 2884 2883 2882 2883 2883 2884 2885 2886 2889 2893 2896 2899 2904 2909
3045 3042 3038 3033 3028 3023 3017 3011 3003 2995 2987 2980 2972 2963 2955 2948 2939 2932 2924 2917 2910 2904 2898 2892 2887 2883 2879 2877 2875 2874 2874 2874 2874 2875 2876 2878 2879 2881 2884 2888 2892 2896 2901
3039 3035 3030 3025 3020 3015 3008 3002 2994 2986 2979 2971 2963 2955 2946 2938 2930 2922 2914 2907 2900 2894 2888 2882 2876 2873 2870 2867 2865 2864 2864 2866 2866 2866 2868 2869 2871 2873 2876 2880 2884 2888 2892
3032 3028 3023 3018 3012 3006 3000 2993 2986 2978 2971 2963 2955 2946 2937 2929 2921 2912 2904 2897 2890 2883 2877 2872 2866 2862 2860 2857 2856 2855 2855 2857 2858 2859 2860 2861 2863 2865 2868 2872 2876 2880 2884
3024 3020 3016 3010 3004 2999 2993 2986 2978 2971 2963 2956 2947 2938 2928 2920 2912 2903 2895 2887 2880 2873 2866 2862 2857 2852 2851 2848 2847 2847 2847 2849 2851 2852 2852 2853 2856 2858 2860 2863 2867 2872 2877
3017 3013 3008 3002 2997 2991 2984 2977 2970 2963 2956 2948 2939 2930 2920 2910 2903 2894 2886 2878 2870 2863 2857 2852 2848 2843 2842 2840 2840 2840 2840 2842 2844 2844 2845 2847 2848 2851 2853 2855 2859 2864 2870
3010 3006 3001 2995 2989 2983 2977 2970 2963 2956 2949 2940 2931 2922 2911 2902 2894 2885 2876 2869 2861 2854 2848 2844 2840 2837 2835 2834 2834 2834 2834 2835 2836 2837 2839 2840 2842 2844 2846 2848 2851 2856 2862
3003 2999 2994 2988 2982 2975 2969 2963 2956 2949 2941 2932 2924 2915 2905 2895 2886 2877 2868 2860 2853 2847 2842 2837 2834 2832 2830 2829 2829 2829 2828 2829 2829 2831 2833 2835 2836 2837 2839 2841 2844 2849 2855
2995 2991 2987 2981 2975 2968 2963 2957 2950 2942 2934 2926 2917 2908 2900 2890 2880 2871 2864 2855 2847 2841 2837 2833 2831 2829 2827 2825 2825 2824 2823 2823 2823 2824 2826 2828 2829 2830 2832 2834 2837 2842 2847
2988 2985 2980 2975 2969 2963 2957 2951 2943 2936 2927 2919 2910 2902 2894 2885 2876 2868 2859 2852 2845 2839 2835 2831 2828 2826 2824 2822 2820 2819 2818 2818 2817 2817 2819 2820 2822 2823 2825 2828 2831 2835 2840
2981 2978 2973 2968 2964 2958 2952 2944 2937 2930 2921 2914 2905 2898 2888 2881 2874 2866 2858 2851 2843 2838 2833 2829 2826 2823 2821 2818 2816 2814 2813 2812 2811 2810 2810 2811 2813 2815 2818 2821 2825 2829 2834
2974 2971 2967 2963 2959 2953 2946 2939 2932 2925 2917 2910 2902 2895 2886 2878 2871 2864 2856 2850 2844 2836 2830 2827 2823 2819 2817 2814 2811 2808 2807 2806 2804 2803 2802 2803 2805 2807 2811 2815 2819 2823 2828
2968 2964 2961 2957 2952 2946 2940 2934 2928 2921 2913 2906 2899 2891 2883 2876 2869 2862 2856 2851 2843 2838 2832 2826 2820 2816 2812 2808 2805 2803 2800 2798 2797 2794 2794 2795 2797 2800 2804 2809 2813 2817 2823
Wind_Speed
16 14 15 16 18 22 27 33 40 40 41 42 44 45 46 46 47 48 48 49 50 51 51 51 50 50 51 47 44 45 44 42 41 41 48 48 43 37 33 30 31 28 34
17 18 18 19 20 24 29 35 41 42 43 45 49 52 53 52 52 52 50 48 48 49 50 49 47 47 47 44 42 43 44 42 41 43 39 39 44 44 38 34 28 30 28
17 19 20 20 20 25 31 38 41 43 45 48 52 53 54 52 52 52 51 48 48 48 47 45 43 44 44 43 39 38 42 42 38 37 40 38 33 32 32 32 31 29 28
18 20 21 21 23 28 35 40 42 44 45 50 54 57 57 56 56 55 54 51 47 44 43 42 41 40 41 40 39 37 39 40 39 36 33 39 36 32 29 26 27 29 31
18 19 20 21 26 33 38 40 42 44 48 51 56 58 55 56 55 54 52 47 43 41 40 40 39 39 39 38 39 37 37 38 37 35 34 33 34 35 32 32 27 27 31
16 18 20 23 30 36 38 41 43 45 49 53 56 55 55 56 56 53 49 45 42 41 40 38 37 36 36 35 36 36 35 35 36 34 34 32 33 34 35 29 34 29 30
15 19 21 28 33 35 39 42 43 46 51 55 55 54 55 56 54 49 46 45 43 42 40 37 35 34 33 33 33 34 33 33 34 33 33 33 33 35 35 36 32 34 31
17 21 26 32 33 36 39 42 44 49 53 55 55 54 55 53 48 46 45 44 45 44 41 38 35 33 32 31 32 31 31 31 32 32 32 32 33 34 34 35 36 34 38
18 23 32 31 34 37 40 42 45 50 54 55 55 55 53 48 47 46 46 46 46 44 42 39 37 34 32 31 31 30 29 29 30 30 30 32 32 33 35 35 36 38 35
24 30 29 32 34 37 39 42 49 54 56 55 55 53 50 48 48 48 48 48 46 44 42 39 37 35 32 31 30 29 28 27 28 28 28 29 31 32 34 35 35 37 38
29 29 30 32 34 37 39 45 52 54 54 54 53 51 50 49 50 50 49 49 47 44 42 40 38 35 33 30 30 29 28 27 26 27 27 27 29 31 33 35 35 36 38
29 30 31 33 35 37 43 50 52 53 53 52 51 51 51 50 50 49 48 46 45 43 41 40 38 36 33 30 29 29 29 27 26 25 27 26 27 29 31 34 35 35 36
29 29 31 33 36 41 48 50 51 51 51 51 51 51 51 50 48 47 46 45 44 43 42 41 40 37 34 31 29 29 28 28 27 26 26 26 27 27 28 31 33 35 37
26 29 32 35 40 46 49 49 49 49 50 50 51 51 49 48 48 48 47 46 44 44 43 41 40 39 36 32 30 30 29 28 27 27 27 26 27 27 27 29 31 33 37
28 32 36 40 44 47 47 47 47 48 48 49 49 48 48 48 48 47 46 45 45 44 43 42 39 37 36 33 31 30 29 28 27 27 26 26 27 27 27 28 29 32 35
32 36 38 42 44 45 45 46 47 47 48 47 46 47 48 47 47 48 47 47 46 44 43 40 39 37 34 32 30 29 29 27 27 25 26 26 27 28 28 29 29 31 33
34 36 38 41 42 42 44 45 46 47 46 46 46 46 47 48 48 48 48 46 45 43 41 39 37 35 32 30 28 27 28 26 24 23 24 25 26 27 28 30 31 32 33
34 35 37 38 40 41 43 44 45 45 44 44 45 45 47 48 49 49 48 47 45 42 40 36 34 33 28 26 25 24 26 25 22 22 22 24 24 25 28 30 32 32 33
32 34 35 37 39 42 42 43 43 43 43 43 44 46 48 50 50 50 48 46 44 41 37 35 31 29 24 22 20 22 24 23 21 21 21 22 22 22 26 30 32 33 33
31 32 34 37 40 41 41 42 41 41 42 43 45 46 49 50 50 49 49 46 42 39 35 31 27 24 20 17 18 20 22 22 21 19 18 19 20 20 24 28 31 33 33
30 31 33 37 38 39 39 39 40 40 41 43 45 47 49 49 49 49 45 42 37 34 31 28 23 19 17 15 17 19 21 21 20 19 17 17 20 22 23 26 30 31 31
29 30 33 35 36 37 38 37 38 39 41 43 45 47 47 47 46 43 39 36 34 31 26 22 17 15 15 16 17 18 19 20 22 20 19 17 18 24 24 25 28 29 31
28 31 32 33 34 35 36 36 37 39 41 43 45 45 44 42 39 38 36 33 31 29 24 21 18 16 15 15 17 18 18 20 22 23 24 23 21 23 26 26 27 28 31
28 30 30 31 31 32 32 34 37 39 41 43 43 43 41 37 34 32 31 29 29 26 24 22 19 16 14 14 15 17 19 20 23 25 27 25 22 23 26 26 27 29 31
28 28 28 28 29 30 31 34 36 39 41 42 41 41 37 34 32 29 28 27 25 28 29 26 23 22 19 17 16 17 17 18 20 22 25 25 22 23 26 26 27 29 31
25 26 27 27 28 29 31 33 35 38 40 40 40 37 35 33 31 30 25 23 24 23 24 26 28 26 24 22 18 16 17 19 21 22 21 22 22 22 26 27 27 28 30
Wind_Direction
255 261 272 290 302 312 318 324 328 326 324 325 325 325 325 324 322 320 318 313 309 304 301 298 295 291 290 287 282 278 276 273 275 276 262 253 255 255 255 257 253 250 246
259 262 271 285 297 309 313 321 324 321 323 326 329 330 328 325 322 319 316 312 308 305 302 299 296 291 289 288 282 278 278 277 275 277 275 271 251 252 254 254 254 246 240
262 265 271 283 296 305 311 319 320 321 324 327 328 328 325 321 318 316 316 314 310 306 303 302 298 293 290 288 284 280 276 275 273 273 276 277 271 253 244 252 252 245 239
263 265 268 286 297 301 313 317 318 321 323 325 328 327 324 322 321 320 318 315 311 308 306 304 300 295 292 291 287 281 277 276 272 267 265 272 273 267 250 243 242 241 234
263 266 274 288 296 308 313 314 319 320 323 326 327 324 322 320 319 317 316 316 314 311 308 304 300 296 292 289 286 283 277 274 274 266 260 258 264 268 264 238 234 235 233
263 270 282 293 303 308 311 315 318 319 323 325 324 322 320 318 319 320 319 317 314 313 311 307 303 299 295 290 285 282 277 274 271 268 260 254 251 254 260 262 246 238 231
273 281 288 298 304 309 313 316 317 319 322 322 321 320 320 320 320 320 319 317 316 314 312 309 305 301 296 292 287 283 279 274 270 265 261 254 250 248 247 250 248 248 228
280 284 291 301 308 313 315 314 316 319 320 319 320 321 320 320 321 319 318 317 316 314 313 311 308 304 299 293 289 285 281 275 271 266 260 255 248 248 247 245 244 244 239
287 291 300 305 313 314 314 313 314 317 318 319 320 321 320 321 320 319 318 316 314 313 311 311 309 306 301 295 291 287 282 277 272 267 260 255 249 243 245 243 240 242 239
294 302 306 312 312 311 309 311 315 317 318 319 320 321 321 320 319 318 316 314 312 311 310 308 306 304 301 295 291 288 284 278 273 268 261 255 251 245 242 243 240 240 240
306 310 312 311 309 307 308 312 315 317 318 319 319 319 319 319 318 317 315 313 311 310 309 307 304 302 299 294 289 286 283 277 272 269 263 256 252 247 241 240 238 236 236
311 312 311 309 306 307 309 314 317 317 317 318 319 319 318 318 317 316 314 312 312 312 310 307 303 300 296 292 286 280 278 275 270 267 263 259 253 249 243 239 237 235 234
310 308 306 306 306 308 312 315 315 315 317 318 318 317 318 318 317 315 314 314 314 312 310 307 303 299 294 289 284 278 272 271 269 265 261 258 255 249 245 240 235 232 230
305 305 306 307 308 311 313 314 314 316 317 317 317 317 318 317 316 316 315 315 314 312 309 307 303 299 295 290 282 276 272 268 267 265 261 257 254 251 246 242 237 231 229
305 308 309 308 308 310 310 313 315 316 316 317 318 319 318 317 317 316 316 316 313 311 309 307 305 300 295 290 282 275 270 268 266 263 260 255 252 249 244 241 237 233 229
305 306 306 306 307 309 313 315 317 317 318 319 319 319 318 318 319 318 317 315 313 311 308 306 303 300 295 289 281 275 268 266 265 263 258 255 249 247 243 240 235 233 229
303 305 305 306 308 312 315 317 318 319 320 321 321 320 320 321 320 319 318 316 313 311 309 306 302 299 295 287 279 271 266 266 266 267 260 253 249 245 243 239 234 231 229
304 304 305 307 311 314 317 319 319 321 322 322 322 323 322 322 322 321 319 316 315 314 311 307 303 299 294 285 276 267 265 268 268 267 261 254 247 244 242 239 235 231 229
302 304 307 311 314 317 319 320 321 322 323 324 326 326 325 325 324 322 321 321 319 316 313 310 307 302 296 285 273 266 267 269 270 264 259 254 250 243 241 240 236 231 228
305 308 312 315 317 319 321 321 322 324 326 328 328 329 327 327 326 325 323 321 318 317 315 312 309 304 297 280 270 266 267 273 273 262 251 252 253 245 241 240 237 231 226
308 311 315 316 319 320 322 322 324 327 330 330 331 331 331 330 327 325 325 324 321 320 321 319 315 307 297 285 276 270 271 275 272 260 248 253 254 250 242 239 237 231 224
310 314 317 318 318 320 321 324 326 331 332 333 334 334 333 330 330 330 331 331 329 327 328 327 323 313 301 292 281 274 272 273 272 256 254 263 262 247 242 238 236 230 221
313 316 317 318 319 320 322 327 331 333 334 335 337 335 334 334 335 337 336 338 336 336 337 333 331 325 310 294 285 279 274 272 270 262 262 266 265 244 237 235 233 226 219
313 316 317 319 320 321 326 331 333 334 336 338 336 336 337 339 339 341 340 341 339 340 339 336 334 328 319 303 288 279 273 269 266 266 267 268 258 240 235 231 229 223 217
313 315 318 320 321 326 331 334 335 337 338 337 338 338 339 341 343 345 345 346 345 339 337 338 335 330 327 320 306 294 281 276 275 264 260 258 251 238 230 227 225 221 216
314 317 319 321 327 331 333 335 337 338 337 339 338 340 341 342 343 343 347 351 347 342 333 330 328 328 327 324 315 302 292 287 284 273 261 248 244 236 225 221 220 218 215